QPF
0.05 0.06 0.05 0.03 0.02 0.00 0.00 0.00 0.00 0.00 0.00 0.00 0.00 0.00 0.00 0.00 0.00 0.00 0.00 0.00 0.00 0.00 0.00 0.00 0.00 0.00 0.00 0.00 0.00 0.00 0.00 0.00 0.01 0.01 0.01 0.02 0.04 0.08 0.10 0.04 0.02 0.01 0.01 0.00
0.05 0.04 0.03 0.02 0.01 0.00 0.00 0.00 0.00 0.00 0.00 0.00 0.00 0.00 0.00 0.00 0.00 0.00 0.00 0.00 0.00 0.00 0.00 0.00 0.00 0.00 0.00 0.00 0.00 0.00 0.00 0.01 0.00 0.01 0.01 0.01 0.01 0.03 0.09 0.13 0.07 0.02 0.02 0.01
0.03 0.02 0.01 0.01 0.01 0.00 0.00 0.00 0.00 0.00 0.00 0.00 0.00 0.00 0.00 0.00 0.00 0.00 0.00 0.00 0.00 0.00 0.00 0.00 0.00 0.00 0.00 0.00 0.00 0.00 0.01 0.01 0.01 0.00 0.00 0.01 0.01 0.01 0.02 0.07 0.15 0.11 0.05 0.02
0.02 0.01 0.01 0.01 0.01 0.01 0.00 0.00 0.00 0.01 0.00 0.00 0.00 0.00 0.00 0.00 0.00 0.00 0.00 0.00 0.00 0.00 0.00 0.00 0.00 0.00 0.00 0.00 0.00 0.00 0.01 0.01 0.01 0.01 0.01 0.01 0.01 0.01 0.01 0.02 0.06 0.15 0.18 0.10
0.02 0.01 0.01 0.02 0.01 0.01 0.00 0.00 0.00 0.01 0.01 0.01 0.00 0.00 0.00 0.00 0.00 0.00 0.00 0.00 0.00 0.00 0.00 0.00 0.00 0.00 0.00 0.00 0.01 0.00 0.01 0.01 0.01 0.01 0.01 0.01 0.01 0.01 0.01 0.01 0.01 0.03 0.10 0.16
0.01 0.01 0.01 0.01 0.01 0.01 0.01 0.01 0.01 0.01 0.02 0.02 0.00 0.00 0.00 0.00 0.00 0.00 0.00 0.00 0.00 0.00 0.00 0.00 0.00 0.00 0.00 0.00 0.00 0.01 0.01 0.01 0.01 0.01 0.01 0.01 0.01 0.01 0.01 0.01 0.01 0.01 0.02 0.04
0.01 0.01 0.01 0.01 0.01 0.02 0.02 0.02 0.03 0.03 0.03 0.01 0.00 0.00 0.01 0.00 0.00 0.00 0.00 0.00 0.00 0.00 0.00 0.00 0.00 0.00 0.00 0.00 0.00 0.00 0.00 0.01 0.01 0.01 0.01 0.01 0.01 0.01 0.01 0.01 0.01 0.01 0.01 0.01
0.03 0.03 0.02 0.01 0.01 0.02 0.02 0.02 0.02 0.02 0.01 0.01 0.00 0.00 0.01 0.00 0.00 0.00 0.00 0.00 0.00 0.00 0.00 0.00 0.00 0.00 0.00 0.00 0.00 0.00 0.00 0.00 0.00 0.01 0.01 0.01 0.01 0.01 0.01 0.01 0.01 0.01 0.01 0.01
0.03 0.03 0.01 0.01 0.01 0.02 0.02 0.01 0.01 0.03 0.02 0.01 0.01 0.00 0.00 0.00 0.00 0.00 0.00 0.00 0.00 0.00 0.00 0.00 0.00 0.00 0.00 0.00 0.00 0.00 0.00 0.00 0.00 0.00 0.01 0.01 0.01 0.01 0.01 0.01 0.01 0.01 0.01 0.01
0.03 0.03 0.01 0.01 0.01 0.02 0.02 0.02 0.02 0.03 0.02 0.01 0.00 0.00 0.01 0.00 0.00 0.00 0.00 0.00 0.00 0.00 0.00 0.00 0.00 0.00 0.00 0.00 0.00 0.00 0.00 0.00 0.00 0.01 0.01 0.01 0.01 0.01 0.01 0.01 0.01 0.01 0.01 0.01
0.03 0.04 0.02 0.01 0.01 0.01 0.02 0.02 0.02 0.03 0.02 0.01 0.01 0.01 0.01 0.01 0.00 0.00 0.00 0.00 0.00 0.00 0.00 0.00 0.00 0.00 0.00 0.00 0.00 0.00 0.00 0.00 0.01 0.01 0.01 0.01 0.01 0.01 0.01 0.01 0.01 0.01 0.01 0.01
0.03 0.04 0.03 0.01 0.01 0.01 0.01 0.01 0.02 0.04 0.03 0.02 0.01 0.01 0.01 0.00 0.00 0.00 0.00 0.00 0.00 0.00 0.00 0.00 0.00 0.00 0.00 0.00 0.00 0.00 0.00 0.00 0.00 0.00 0.00 0.00 0.01 0.01 0.01 0.01 0.01 0.01 0.01 0.01
0.03 0.05 0.04 0.03 0.02 0.02 0.02 0.02 0.02 0.03 0.03 0.02 0.02 0.01 0.01 0.00 0.00 0.00 0.00 0.00 0.00 0.00 0.00 0.00 0.00 0.00 0.00 0.00 0.00 0.00 0.00 0.00 0.00 0.00 0.00 0.00 0.01 0.01 0.01 0.01 0.01 0.01 0.00 0.00
0.04 0.06 0.05 0.04 0.03 0.03 0.02 0.01 0.01 0.02 0.03 0.02 0.01 0.01 0.01 0.01 0.00 0.00 0.00 0.00 0.00 0.00 0.00 0.00 0.00 0.00 0.00 0.00 0.00 0.00 0.00 0.00 0.00 0.00 0.00 0.01 0.01 0.01 0.01 0.01 0.00 0.00 0.00 0.00
0.03 0.04 0.02 0.01 0.01 0.01 0.02 0.01 0.01 0.02 0.02 0.02 0.01 0.00 0.00 0.01 0.01 0.00 0.00 0.00 0.00 0.00 0.00 0.00 0.00 0.00 0.00 0.00 0.00 0.00 0.01 0.01 0.00 0.00 0.00 0.00 0.01 0.01 0.01 0.01 0.00 0.00 0.00 0.00
0.03 0.03 0.02 0.01 0.00 0.00 0.01 0.01 0.00 0.00 0.01 0.01 0.00 0.00 0.00 0.00 0.00 0.00 0.00 0.00 0.00 0.00 0.00 0.00 0.00 0.00 0.00 0.00 0.00 0.00 0.01 0.01 0.00 0.01 0.01 0.01 0.01 0.01 0.01 0.01 0.01 0.00 0.00 0.00
0.03 0.03 0.04 0.02 0.01 0.01 0.02 0.01 0.00 0.00 0.00 0.00 0.00 0.00 0.00 0.00 0.00 0.00 0.00 0.00 0.00 0.00 0.00 0.00 0.00 0.00 0.00 0.00 0.00 0.00 0.00 0.01 0.01 0.01 0.02 0.02 0.02 0.02 0.01 0.01 0.01 0.00 0.00 0.00
0.02 0.03 0.04 0.03 0.02 0.02 0.01 0.00 0.00 0.00 0.00 0.00 0.00 0.00 0.00 0.00 0.00 0.00 0.00 0.00 0.00 0.00 0.00 0.00 0.00 0.00 0.00 0.00 0.00 0.00 0.00 0.01 0.01 0.01 0.02 0.03 0.02 0.02 0.02 0.01 0.01 0.00 0.00 0.00
0.01 0.04 0.07 0.05 0.03 0.01 0.00 0.00 0.00 0.00 0.00 0.00 0.00 0.00 0.00 0.00 0.00 0.00 0.00 0.00 0.00 0.00 0.00 0.00 0.00 0.00 0.00 0.00 0.00 0.00 0.00 0.01 0.01 0.01 0.02 0.02 0.03 0.03 0.02 0.01 0.01 0.01 0.00 0.00
0.01 0.03 0.06 0.05 0.04 0.02 0.01 0.00 0.00 0.01 0.02 0.01 0.01 0.01 0.00 0.00 0.01 0.00 0.00 0.00 0.00 0.00 0.00 0.00 0.00 0.00 0.00 0.00 0.00 0.00 0.00 0.00 0.01 0.01 0.02 0.02 0.02 0.02 0.02 0.02 0.01 0.01 0.00 0.00
0.03 0.04 0.04 0.03 0.03 0.02 0.01 0.00 0.00 0.02 0.02 0.01 0.01 0.01 0.01 0.01 0.01 0.00 0.00 0.00 0.00 0.00 0.00 0.00 0.00 0.00 0.00 0.00 0.00 0.00 0.00 0.00 0.00 0.01 0.02 0.02 0.02 0.02 0.02 0.02 0.01 0.01 0.01 0.01
0.02 0.03 0.02 0.03 0.03 0.02 0.01 0.00 0.01 0.01 0.01 0.01 0.01 0.01 0.01 0.01 0.00 0.00 0.00 0.01 0.01 0.00 0.00 0.00 0.00 0.00 0.00 0.00 0.00 0.00 0.00 0.00 0.00 0.01 0.02 0.02 0.02 0.02 0.02 0.02 0.02 0.01 0.01 0.01
0.01 0.02 0.02 0.02 0.01 0.01 0.00 0.00 0.01 0.01 0.01 0.01 0.01 0.01 0.02 0.01 0.01 0.01 0.01 0.01 0.01 0.01 0.00 0.00 0.00 0.00 0.00 0.00 0.00 0.00 0.00 0.00 0.01 0.01 0.01 0.02 0.02 0.02 0.01 0.01 0.01 0.01 0.01 0.01
0.01 0.01 0.01 0.01 0.01 0.00 0.00 0.00 0.01 0.01 0.01 0.02 0.02 0.01 0.01 0.01 0.01 0.01 0.01 0.01 0.01 0.01 0.00 0.00 0.00 0.00 0.00 0.00 0.00 0.00 0.00 0.01 0.01 0.01 0.01 0.02 0.02 0.02 0.01 0.01 0.01 0.01 0.01 0.01
0.01 0.01 0.01 0.01 0.01 0.01 0.00 0.00 0.01 0.01 0.01 0.01 0.01 0.01 0.01 0.01 0.01 0.01 0.01 0.01 0.01 0.01 0.01 0.00 0.00 0.00 0.00 0.00 0.01 0.01 0.01 0.01 0.01 0.01 0.01 0.01 0.01 0.01 0.01 0.01 0.01 0.01 0.01 0.01
0.00 0.01 0.01 0.01 0.01 0.01 0.01 0.00 0.00 0.01 0.01 0.01 0.01 0.01 0.01 0.01 0.01 0.01 0.01 0.01 0.01 0.01 0.01 0.01 0.01 0.01 0.01 0.01 0.01 0.01 0.01 0.01 0.01 0.01 0.01 0.01 0.01 0.01 0.01 0.01 0.01 0.01 0.01 0.01
MSLP
1009.71 1009.46 1009.21 1008.97 1008.79 1008.67 1008.60 1008.57 1008.51 1008.38 1008.13 1007.72 1007.16 1006.45 1005.64 1004.80 1004.01 1003.36 1002.91 1002.69 1002.74 1003.05 1003.58 1004.29 1005.13 1006.04 1007.00 1007.97 1008.93 1009.87 1010.79 1011.67 1012.51 1013.29 1014.00 1014.63 1015.16 1015.60 1015.95 1016.24 1016.48 1016.69 1016.89 1017.07
1009.32 1009.09 1008.89 1008.76 1008.70 1008.73 1008.82 1008.91 1008.95 1008.86 1008.60 1008.12 1007.45 1006.60 1005.65 1004.68 1003.79 1003.08 1002.60 1002.39 1002.47 1002.81 1003.38 1004.11 1004.96 1005.87 1006.82 1007.76 1008.70 1009.64 1010.54 1011.42 1012.26 1013.04 1013.75 1014.36 1014.89 1015.31 1015.66 1015.95 1016.21 1016.46 1016.71 1016.96
1008.93 1008.74 1008.63 1008.61 1008.71 1008.91 1009.15 1009.38 1009.50 1009.44 1009.14 1008.58 1007.78 1006.80 1005.71 1004.63 1003.67 1002.91 1002.44 1002.27 1002.40 1002.80 1003.41 1004.16 1005.01 1005.90 1006.79 1007.69 1008.57 1009.45 1010.32 1011.16 1011.98 1012.74 1013.43 1014.03 1014.54 1014.97 1015.32 1015.62 1015.91 1016.19 1016.49 1016.80
1008.62 1008.49 1008.47 1008.59 1008.84 1009.19 1009.57 1009.90 1010.08 1010.02 1009.67 1009.01 1008.09 1006.97 1005.76 1004.59 1003.58 1002.83 1002.39 1002.29 1002.49 1002.96 1003.62 1004.40 1005.22 1006.06 1006.89 1007.70 1008.49 1009.28 1010.08 1010.86 1011.63 1012.36 1013.03 1013.63 1014.13 1014.56 1014.93 1015.26 1015.57 1015.89 1016.23 1016.58
1008.47 1008.40 1008.47 1008.70 1009.08 1009.55 1010.04 1010.44 1010.63 1010.54 1010.11 1009.34 1008.29 1007.05 1005.75 1004.52 1003.51 1002.79 1002.42 1002.41 1002.71 1003.25 1003.96 1004.74 1005.54 1006.32 1007.05 1007.75 1008.43 1009.11 1009.81 1010.51 1011.22 1011.91 1012.56 1013.15 1013.66 1014.11 1014.49 1014.85 1015.20 1015.55 1015.92 1016.29
1008.55 1008.53 1008.67 1008.98 1009.44 1009.99 1010.52 1010.93 1011.10 1010.95 1010.42 1009.55 1008.38 1007.05 1005.68 1004.44 1003.45 1002.80 1002.52 1002.61 1003.01 1003.63 1004.37 1005.16 1005.91 1006.61 1007.23 1007.81 1008.36 1008.92 1009.50 1010.12 1010.77 1011.41 1012.04 1012.62 1013.14 1013.60 1014.02 1014.40 1014.78 1015.15 1015.54 1015.93
1008.89 1008.90 1009.07 1009.42 1009.91 1010.48 1011.01 1011.39 1011.49 1011.25 1010.62 1009.64 1008.39 1006.99 1005.60 1004.37 1003.44 1002.88 1002.70 1002.90 1003.39 1004.07 1004.84 1005.60 1006.30 1006.90 1007.41 1007.85 1008.28 1008.71 1009.19 1009.73 1010.30 1010.90 1011.50 1012.07 1012.59 1013.07 1013.50 1013.91 1014.30 1014.70 1015.10 1015.50
1009.47 1009.48 1009.65 1009.99 1010.47 1011.01 1011.49 1011.79 1011.81 1011.46 1010.74 1009.67 1008.36 1006.94 1005.56 1004.39 1003.54 1003.07 1003.01 1003.30 1003.85 1004.57 1005.34 1006.06 1006.68 1007.19 1007.58 1007.90 1008.21 1008.53 1008.92 1009.37 1009.88 1010.44 1011.00 1011.54 1012.05 1012.53 1012.96 1013.38 1013.78 1014.19 1014.60 1015.01
1010.22 1010.20 1010.34 1010.65 1011.07 1011.54 1011.94 1012.14 1012.06 1011.62 1010.81 1009.69 1008.36 1006.96 1005.63 1004.54 1003.79 1003.42 1003.45 1003.81 1004.40 1005.12 1005.86 1006.52 1007.06 1007.46 1007.75 1007.97 1008.18 1008.41 1008.72 1009.10 1009.56 1010.06 1010.58 1011.08 1011.56 1012.00 1012.42 1012.82 1013.22 1013.63 1014.04 1014.46
1011.01 1010.96 1011.05 1011.30 1011.65 1012.03 1012.33 1012.44 1012.26 1011.74 1010.88 1009.74 1008.43 1007.08 1005.84 1004.85 1004.20 1003.93 1004.02 1004.42 1005.02 1005.72 1006.40 1006.98 1007.43 1007.74 1007.94 1008.08 1008.21 1008.39 1008.64 1008.97 1009.37 1009.81 1010.27 1010.72 1011.14 1011.53 1011.90 1012.27 1012.65 1013.04 1013.46 1013.88
1011.70 1011.61 1011.66 1011.85 1012.13 1012.42 1012.63 1012.64 1012.38 1011.81 1010.93 1009.81 1008.56 1007.30 1006.16 1005.28 1004.74 1004.55 1004.69 1005.10 1005.67 1006.31 1006.92 1007.42 1007.78 1008.01 1008.15 1008.24 1008.33 1008.47 1008.69 1008.98 1009.34 1009.72 1010.11 1010.47 1010.81 1011.12 1011.42 1011.74 1012.07 1012.45 1012.85 1013.28
1012.17 1012.05 1012.07 1012.21 1012.42 1012.64 1012.76 1012.70 1012.39 1011.79 1010.92 1009.86 1008.69 1007.54 1006.53 1005.77 1005.32 1005.19 1005.36 1005.76 1006.29 1006.86 1007.38 1007.80 1008.09 1008.26 1008.36 1008.43 1008.51 1008.65 1008.85 1009.12 1009.42 1009.74 1010.05 1010.32 1010.56 1010.78 1010.99 1011.23 1011.51 1011.85 1012.25 1012.68
1012.33 1012.21 1012.21 1012.31 1012.48 1012.63 1012.69 1012.58 1012.23 1011.63 1010.80 1009.81 1008.74 1007.71 1006.83 1006.19 1005.83 1005.76 1005.95 1006.33 1006.80 1007.30 1007.75 1008.09 1008.33 1008.47 1008.56 1008.63 1008.72 1008.87 1009.07 1009.32 1009.58 1009.83 1010.05 1010.23 1010.36 1010.47 1010.59 1010.75 1010.98 1011.28 1011.66 1012.09
1012.18 1012.06 1012.06 1012.14 1012.27 1012.38 1012.40 1012.24 1011.88 1011.29 1010.52 1009.60 1008.65 1007.75 1006.99 1006.47 1006.19 1006.18 1006.38 1006.73 1007.17 1007.60 1007.98 1008.28 1008.48 1008.60 1008.70 1008.79 1008.90 1009.07 1009.27 1009.50 1009.72 1009.92 1010.05 1010.13 1010.17 1010.18 1010.21 1010.30 1010.47 1010.74 1011.09 1011.51
1011.79 1011.68 1011.67 1011.74 1011.84 1011.91 1011.88 1011.70 1011.33 1010.76 1010.04 1009.21 1008.37 1007.59 1006.97 1006.55 1006.36 1006.40 1006.61 1006.95 1007.35 1007.74 1008.08 1008.34 1008.52 1008.65 1008.75 1008.86 1009.00 1009.18 1009.38 1009.59 1009.77 1009.91 1009.97 1009.97 1009.92 1009.86 1009.83 1009.86 1009.98 1010.21 1010.54 1010.95
1011.27 1011.15 1011.12 1011.16 1011.23 1011.25 1011.19 1010.98 1010.60 1010.06 1009.39 1008.65 1007.92 1007.26 1006.75 1006.44 1006.33 1006.42 1006.66 1007.00 1007.38 1007.74 1008.05 1008.29 1008.46 1008.59 1008.71 1008.83 1008.98 1009.15 1009.34 1009.52 1009.66 1009.74 1009.74 1009.68 1009.58 1009.47 1009.40 1009.40 1009.50 1009.71 1010.03 1010.41
1010.74 1010.59 1010.53 1010.52 1010.53 1010.50 1010.39 1010.15 1009.77 1009.26 1008.65 1007.99 1007.36 1006.81 1006.41 1006.20 1006.17 1006.31 1006.58 1006.92 1007.29 1007.63 1007.92 1008.15 1008.31 1008.44 1008.55 1008.67 1008.80 1008.95 1009.10 1009.24 1009.33 1009.36 1009.32 1009.23 1009.10 1008.98 1008.91 1008.91 1009.01 1009.22 1009.53 1009.89
1010.31 1010.10 1009.97 1009.89 1009.83 1009.73 1009.57 1009.30 1008.92 1008.43 1007.88 1007.31 1006.77 1006.34 1006.04 1005.92 1005.96 1006.15 1006.44 1006.79 1007.15 1007.48 1007.75 1007.96 1008.10 1008.20 1008.29 1008.37 1008.46 1008.56 1008.65 1008.73 1008.77 1008.76 1008.69 1008.59 1008.47 1008.37 1008.33 1008.37 1008.50 1008.73 1009.04 1009.39
1010.02 1009.71 1009.48 1009.31 1009.16 1008.99 1008.78 1008.49 1008.11 1007.67 1007.18 1006.70 1006.26 1005.93 1005.73 1005.69 1005.79 1006.01 1006.32 1006.67 1007.01 1007.32 1007.56 1007.73 1007.84 1007.90 1007.93 1007.95 1007.97 1008.00 1008.02 1008.02 1008.00 1007.95 1007.87 1007.78 1007.69 1007.65 1007.66 1007.75 1007.94 1008.20 1008.53 1008.88
1009.84 1009.41 1009.07 1008.78 1008.54 1008.31 1008.05 1007.75 1007.40 1007.01 1006.60 1006.22 1005.89 1005.66 1005.54 1005.57 1005.71 1005.95 1006.26 1006.59 1006.90 1007.17 1007.36 1007.48 1007.53 1007.53 1007.49 1007.43 1007.37 1007.30 1007.24 1007.16 1007.09 1007.00 1006.91 1006.84 1006.80 1006.81 1006.89 1007.06 1007.30 1007.61 1007.97 1008.33
1009.70 1009.14 1008.67 1008.28 1007.95 1007.66 1007.38 1007.09 1006.79 1006.48 1006.17 1005.89 1005.67 1005.53 1005.50 1005.57 1005.74 1005.98 1006.26 1006.55 1006.80 1007.01 1007.13 1007.18 1007.16 1007.08 1006.96 1006.82 1006.67 1006.51 1006.36 1006.21 1006.08 1005.96 1005.87 1005.81 1005.81 1005.89 1006.04 1006.28 1006.58 1006.94 1007.32 1007.70
1009.48 1008.81 1008.23 1007.75 1007.36 1007.03 1006.76 1006.51 1006.28 1006.07 1005.87 1005.70 1005.59 1005.54 1005.56 1005.66 1005.83 1006.04 1006.27 1006.49 1006.67 1006.79 1006.84 1006.81 1006.71 1006.55 1006.35 1006.13 1005.90 1005.66 1005.44 1005.23 1005.04 1004.89 1004.79 1004.75 1004.79 1004.90 1005.11 1005.40 1005.75 1006.15 1006.56 1006.95
1009.13 1008.36 1007.70 1007.16 1006.74 1006.42 1006.18 1006.00 1005.86 1005.75 1005.67 1005.62 1005.60 1005.62 1005.69 1005.80 1005.94 1006.09 1006.25 1006.37 1006.45 1006.47 1006.43 1006.31 1006.14 1005.91 1005.65 1005.37 1005.07 1004.78 1004.50 1004.24 1004.02 1003.85 1003.74 1003.70 1003.74 1003.89 1004.12 1004.43 1004.80 1005.22 1005.65 1006.05
1008.60 1007.79 1007.09 1006.54 1006.12 1005.83 1005.65 1005.55 1005.51 1005.52 1005.55 1005.60 1005.67 1005.74 1005.83 1005.92 1006.00 1006.08 1006.13 1006.14 1006.11 1006.02 1005.88 1005.68 1005.44 1005.16 1004.85 1004.53 1004.20 1003.87 1003.57 1003.28 1003.04 1002.85 1002.72 1002.67 1002.71 1002.84 1003.07 1003.38 1003.75 1004.16 1004.59 1005.00
1007.95 1007.14 1006.46 1005.93 1005.55 1005.32 1005.21 1005.21 1005.28 1005.38 1005.51 1005.64 1005.76 1005.86 1005.93 1005.98 1005.99 1005.96 1005.89 1005.77 1005.62 1005.42 1005.18 1004.90 1004.60 1004.28 1003.95 1003.61 1003.28 1002.95 1002.64 1002.35 1002.09 1001.88 1001.74 1001.66 1001.67 1001.78 1001.97 1002.25 1002.59 1002.98 1003.39 1003.80
1007.27 1006.52 1005.90 1005.44 1005.13 1004.98 1004.96 1005.04 1005.19 1005.38 1005.57 1005.74 1005.88 1005.97 1006.00 1005.97 1005.88 1005.73 1005.53 1005.28 1005.00 1004.68 1004.35 1004.00 1003.65 1003.30 1002.96 1002.63 1002.30 1001.99 1001.69 1001.41 1001.15 1000.93 1000.77 1000.66 1000.63 1000.69 1000.83 1001.06 1001.36 1001.72 1002.11 1002.52
Thickness
5576 5571 5571 5578 5580 5584 5587 5585 5584 5588 5593 5587 5584 5588 5595 5600 5600 5600 5601 5601 5602 5602 5603 5602 5600 5598 5595 5593 5592 5591 5589 5589 5589 5588 5588 5587 5586 5586 5585 5585 5584 5584 5583 5582
5565 5564 5576 5580 5580 5579 5578 5575 5576 5579 5583 5580 5577 5582 5591 5596 5598 5598 5598 5597 5597 5595 5594 5595 5594 5591 5589 5586 5585 5584 5583 5582 5581 5581 5581 5580 5579 5578 5578 5576 5575 5575 5575 5573
5560 5568 5573 5571 5569 5569 5569 5567 5569 5567 5569 5571 5566 5571 5584 5595 5598 5597 5597 5596 5594 5591 5589 5588 5587 5584 5581 5579 5578 5578 5576 5575 5574 5573 5572 5572 5570 5569 5568 5567 5566 5566 5566 5564
5556 5564 5564 5562 5561 5563 5558 5567 5565 5559 5551 5549 5559 5548 5579 5588 5589 5591 5590 5589 5588 5587 5584 5582 5580 5577 5574 5572 5571 5570 5569 5568 5567 5565 5564 5563 5562 5561 5560 5559 5558 5557 5556 5555
5549 5555 5553 5552 5557 5557 5555 5559 5555 5550 5543 5540 5548 5542 5566 5584 5582 5584 5584 5584 5583 5581 5579 5576 5574 5571 5568 5565 5563 5563 5562 5561 5560 5558 5557 5556 5555 5554 5552 5551 5549 5548 5547 5546
5541 5547 5547 5549 5550 5550 5548 5546 5543 5539 5532 5525 5547 5543 5559 5576 5581 5583 5582 5580 5577 5575 5572 5569 5567 5564 5560 5558 5556 5555 5554 5553 5552 5551 5549 5548 5547 5545 5544 5542 5540 5539 5538 5537
5532 5536 5540 5541 5536 5536 5535 5528 5520 5518 5515 5529 5554 5549 5560 5582 5584 5582 5578 5573 5571 5568 5564 5561 5558 5556 5553 5551 5549 5548 5547 5546 5545 5544 5542 5541 5539 5538 5536 5534 5533 5531 5530 5529
5517 5523 5531 5531 5529 5525 5525 5528 5518 5518 5524 5536 5543 5542 5561 5576 5575 5575 5571 5567 5563 5559 5556 5553 5551 5548 5546 5544 5542 5540 5539 5538 5537 5536 5534 5533 5532 5530 5528 5526 5525 5524 5522 5522
5510 5515 5522 5524 5525 5523 5520 5519 5527 5519 5518 5520 5535 5552 5563 5564 5563 5563 5561 5558 5553 5550 5548 5546 5543 5541 5539 5537 5535 5533 5532 5530 5529 5527 5526 5525 5523 5522 5520 5518 5517 5516 5515 5514
5505 5499 5508 5511 5512 5513 5514 5518 5510 5507 5508 5517 5537 5546 5548 5551 5551 5553 5551 5548 5545 5543 5540 5538 5535 5533 5532 5530 5528 5526 5524 5523 5521 5519 5518 5518 5515 5514 5512 5510 5508 5508 5507 5506
5497 5488 5493 5497 5498 5504 5504 5504 5505 5505 5509 5510 5518 5536 5553 5550 5548 5545 5543 5541 5538 5535 5532 5530 5527 5526 5524 5522 5520 5518 5516 5515 5513 5511 5510 5509 5507 5506 5504 5502 5500 5500 5499 5497
5487 5482 5481 5493 5500 5504 5505 5504 5499 5493 5499 5505 5507 5522 5547 5545 5543 5540 5536 5533 5530 5527 5525 5522 5520 5518 5516 5513 5512 5510 5508 5506 5505 5504 5502 5500 5499 5498 5496 5494 5493 5491 5490 5489
5475 5471 5471 5480 5482 5484 5488 5493 5493 5490 5489 5493 5497 5516 5535 5536 5534 5532 5528 5524 5520 5518 5516 5514 5511 5509 5507 5505 5503 5502 5500 5498 5497 5495 5493 5492 5490 5489 5488 5486 5485 5483 5482 5481
5472 5463 5466 5475 5482 5477 5477 5483 5483 5479 5476 5486 5501 5513 5523 5523 5522 5521 5519 5516 5512 5510 5508 5506 5503 5501 5499 5497 5495 5493 5491 5490 5488 5486 5484 5483 5481 5480 5479 5478 5477 5476 5474 5473
5460 5455 5461 5467 5476 5477 5477 5478 5478 5475 5480 5482 5499 5505 5515 5514 5513 5512 5511 5509 5506 5503 5501 5499 5496 5493 5491 5489 5487 5485 5483 5481 5479 5477 5475 5474 5473 5472 5470 5469 5469 5468 5466 5465
5449 5447 5451 5455 5466 5467 5469 5477 5478 5479 5480 5484 5490 5498 5511 5510 5508 5506 5503 5502 5500 5497 5495 5493 5490 5487 5484 5481 5479 5477 5474 5472 5470 5468 5466 5465 5464 5463 5461 5461 5460 5459 5458 5457
5439 5437 5439 5447 5455 5454 5456 5476 5476 5477 5483 5484 5484 5497 5502 5499 5497 5496 5495 5494 5491 5489 5486 5484 5482 5479 5476 5474 5472 5469 5466 5464 5462 5460 5458 5456 5455 5454 5453 5452 5451 5450 5449 5448
5432 5430 5430 5434 5439 5436 5477 5487 5486 5479 5481 5483 5486 5490 5490 5488 5487 5487 5487 5485 5482 5480 5477 5475 5473 5471 5469 5466 5464 5461 5458 5456 5453 5451 5449 5448 5446 5446 5445 5443 5442 5441 5440 5440
5433 5426 5426 5427 5433 5450 5473 5478 5477 5471 5474 5481 5479 5481 5480 5479 5477 5476 5479 5477 5473 5471 5468 5466 5464 5462 5460 5458 5455 5452 5449 5447 5444 5443 5441 5439 5438 5437 5435 5434 5434 5432 5432 5432
5424 5420 5418 5422 5426 5438 5469 5471 5474 5469 5464 5477 5475 5473 5472 5468 5460 5465 5469 5467 5464 5461 5458 5456 5455 5454 5451 5450 5447 5444 5441 5438 5436 5435 5433 5432 5430 5429 5427 5426 5425 5424 5423 5423
5411 5410 5411 5416 5420 5441 5460 5461 5463 5452 5462 5474 5471 5468 5463 5459 5458 5459 5458 5456 5454 5452 5450 5448 5446 5444 5443 5442 5439 5436 5433 5431 5429 5427 5425 5424 5422 5421 5419 5418 5417 5416 5414 5414
5413 5410 5410 5415 5416 5436 5451 5449 5449 5454 5462 5464 5463 5460 5456 5453 5452 5450 5448 5446 5444 5442 5441 5439 5437 5435 5434 5433 5430 5428 5426 5424 5421 5419 5417 5416 5414 5413 5412 5409 5408 5406 5405 5404
5419 5422 5422 5424 5434 5446 5446 5447 5450 5452 5451 5452 5450 5449 5446 5443 5440 5439 5437 5436 5435 5433 5432 5430 5428 5426 5425 5424 5422 5420 5419 5416 5414 5412 5410 5408 5407 5405 5404 5402 5400 5398 5396 5396
5422 5427 5423 5423 5435 5440 5441 5441 5443 5443 5441 5442 5440 5437 5436 5433 5431 5429 5428 5426 5425 5424 5423 5422 5419 5417 5416 5415 5414 5413 5411 5409 5407 5404 5403 5401 5399 5398 5396 5395 5393 5391 5390 5389
5423 5416 5415 5417 5427 5431 5435 5435 5435 5435 5434 5433 5432 5429 5427 5425 5423 5422 5420 5419 5417 5417 5415 5413 5411 5410 5409 5408 5406 5405 5403 5401 5399 5397 5396 5394 5392 5390 5389 5388 5386 5385 5384 5383
5420 5414 5412 5420 5426 5422 5427 5430 5429 5427 5426 5425 5423 5422 5420 5418 5417 5415 5413 5412 5410 5408 5407 5405 5404 5403 5402 5400 5399 5398 5396 5394 5392 5390 5389 5387 5385 5383 5381 5380 5379 5379 5378 5378